Amman, Jordan

4:40 PM EEST on April 28, 2017 (GMT +0300)
Marka International

Weather History for OJAM - February, 2014

Change the Weather History Date:

Wednesday, February 12, 2014

  Actual Average Record
Temperature  
Mean Temperature 53 °F -  
Max Temperature 65 °F 57 °F 65 °F (2014)
Min Temperature 41 °F 42 °F 33 °F (1997)
Degree Days  
Heating Degree Days 12    
Growing Degree Days 3 (Base 50)    
Moisture  
Dew Point 33 °F    
Average Humidity 46    
Maximum Humidity 87    
Minimum Humidity 17    
Precipitation  
Precipitation 0.00 in 0.07 in - ()
Sea Level Pressure  
Sea Level Pressure 30.10 in    
Wind  
Wind Speed 4 mph ()    
Max Wind Speed 22 mph    
Max Gust Speed -    
Visibility 3.4 miles    
Events      
Averages and records for this station are not official NWS values.
T = Trace of Precipitation, MM = Missing Value Source: Averaged Metar Reports

Daily Weather History Graph

Daily Weather History Graph

Search for Another Location

Airport or City:

Trip Planner

Search our weather history database for the weather conditions in past years. The results will help you decide how hot, cold, wet, or windy it might be!

Date:

Astronomy

Feb. 12, 2014 Rise Set
Actual Time 6:21 AM EET 5:19 PM EET
Civil Twilight 5:56 AM EET 5:44 PM EET
Nautical Twilight 5:27 AM EET 6:13 PM EET
Astronomical Twilight 4:58 AM EET 6:42 PM EET
Moon 3:17 PM EET (2/12) 4:20 AM EET (2/12)
Length of Visible Light 11h 48m
Length of Day
10h 58m
Waxing Gibbous, 94% of the Moon is Illuminated
Feb 12
Waxing Gibbous
Feb 15
Full
Feb 22
Last Quarter
Mar 1
New
Mar 8
First Quarter

Hourly Weather History & Observations

Time (EET) Temp. Dew Point Humidity Pressure Visibility Wind Dir Wind Speed Gust Speed Precip Events Conditions
12:00 AM 48.2 °F 37.4 °F 66% 30.18 in 3.1 mi Calm Calm - N/A   Haze
1:00 AM 46.4 °F 39.2 °F 76% 30.18 in 3.1 mi Calm Calm - N/A   Haze
2:00 AM 51 °F 26 °F 26% 30.02 in 4 mi SSE 6.9 mph - -   Haze
2:00 AM 46.4 °F 41.0 °F 81% 30.18 in 2.5 mi Calm Calm - N/A   Haze
3:00 AM 44.6 °F 39.2 °F 81% 30.15 in 2.5 mi Calm Calm - N/A   Haze
4:00 AM 42.8 °F 37.4 °F 81% 30.15 in 2.5 mi Calm Calm - N/A   Haze
5:00 AM 43 °F 36 °F 70% 30.15 in 2 mi Calm Calm - -   Haze
5:00 AM 42.8 °F 39.2 °F 87% 30.12 in 2.5 mi Calm Calm - N/A   Haze
6:00 AM 42.8 °F 37.4 °F 81% 30.12 in 2.5 mi Calm Calm - N/A   Haze
7:00 AM 41.0 °F 33.8 °F 76% 30.12 in 2.5 mi Calm Calm - N/A   Haze
8:00 AM 48 °F 35 °F 51% 30.16 in 3 mi WNW 4.6 mph - -   Haze
8:00 AM 48.2 °F 35.6 °F 62% 30.15 in 3.1 mi SE 4.6 mph - N/A   Haze
9:00 AM 55.4 °F 32.0 °F 41% 30.15 in 3.1 mi SSE 6.9 mph - N/A   Haze
10:00 AM 57.2 °F 33.8 °F 41% 30.15 in 3.1 mi SSE 6.9 mph - N/A   Haze
11:00 AM 59 °F 33 °F 26% 30.14 in 4 mi ESE 22.4 mph - -   Haze
11:00 AM 59.0 °F 33.8 °F 39% 30.15 in 3.7 mi ESE 11.5 mph - N/A   Unknown
12:00 PM 60.8 °F 33.8 °F 36% 30.12 in 3.7 mi SE 6.9 mph - N/A   Unknown
1:00 PM 62.6 °F 32.0 °F 32% 30.09 in 3.7 mi ESE 11.5 mph - N/A   Unknown
2:00 PM 64 °F 35 °F 22% 30.05 in 4 mi East 6.9 mph - -   Haze
2:00 PM 64.4 °F 35.6 °F 34% 30.09 in 4.3 mi East 6.9 mph - N/A   Unknown
3:00 PM 64.4 °F 32.0 °F 30% 30.06 in 3.7 mi ESE 10.4 mph - N/A   Unknown
4:00 PM 62.6 °F 30.2 °F 30% 30.06 in 3.7 mi ESE 5.8 mph - N/A   Unknown
5:00 PM 62 °F 29 °F 17% 30.04 in 4 mi ESE 11.2 mph - -   Haze
5:00 PM 60.8 °F 28.4 °F 29% 30.06 in 3.7 mi ESE 5.8 mph - N/A   Unknown
6:00 PM 59.0 °F 28.4 °F 31% 30.06 in 3.7 mi ESE 5.8 mph - N/A   Unknown
7:00 PM 55.4 °F 30.2 °F 38% 30.09 in 3.7 mi ESE 6.9 mph - N/A   Unknown
8:00 PM 55 °F 31 °F 27% 30.07 in 4 mi SSE 8.1 mph - -   Haze
8:00 PM 55.4 °F 30.2 °F 38% 30.06 in 3.7 mi SSE 8.1 mph - N/A   Unknown
9:00 PM 53.6 °F 28.4 °F 38% 30.06 in 3.7 mi SE 6.9 mph - N/A   Unknown
10:00 PM 53.6 °F 26.6 °F 35% 30.06 in 3.7 mi SSE 6.9 mph - N/A   Unknown
11:00 PM 54 °F 27 °F 22% 30.03 in 4 mi SE 8.9 mph - -   Haze
11:00 PM 53.6 °F 26.6 °F 35% 30.06 in 3.7 mi SE 4.6 mph - N/A   Unknown